Location: Woodhurst
(52.3667°N, 0.0667°W)
Time: 22:18:45
(UTC+00:00)

IRS-1C Rocket - Pass Details

Date: 19 May 2025
Orbit: 798 x 805 km, 98.8° (Epoch: 18 June)

Event Time Altitude Azimuth Distance (km) Brightness Sun altitude
Exits shadow 21:15:28 - 170° (S) 2,501 6.1 -9.6°
Reaches altitude 10° 21:15:47 10° 170° (S) 2,379 6.0 -9.6°
Maximum altitude 21:21:02 74° 255° (WSW) 840 4.3 -10.1°
Drops below altitude 10° 21:26:20 10° 341° (NNW) 2,392 7.9 -10.6°
Sets 21:28:41 0° 344° (NNW) 3,326 8.9 -10.8°
